GW3178 Weather Reports


time (UTC)temp
F
wind
direction
speed
knots
gust
knots
rain 1hr
in
rain 24hr
in
rain mn
in
humidity
%
barometer
mb
20260504050629 41 163 0.0 0.0 0.00 0.00 0.00 81 1013.3
20260504050126 41 162 0.0 0.0 0.00 0.00 0.00 81 1013.2
20260504045624 42 163 0.0 0.0 0.00 0.00 0.00 80 1013.3
20260504045118 42 163 0.0 0.0 0.00 0.00 0.00 79 1013.4
20260504044616 42 163 0.0 0.0 0.00 0.00 0.00 79 1013.5
20260504044113 42 163 0.0 0.0 0.00 0.00 0.00 79 1013.4
20260504043610 42 164 0.0 0.0 0.00 0.00 0.00 79 1013.4
20260504043107 42 165 0.0 0.0 0.00 0.00 0.00 80 1013.4
20260504042604 42 150 0.0 0.0 0.00 0.00 0.00 80 1013.3
20260504042101 42 150 0.0 0.0 0.00 0.00 0.00 79 1013.3
20260504041557 42 150 0.0 0.0 0.00 0.00 0.00 77 1013.3
20260504041053 43 150 0.0 0.0 0.00 0.00 0.00 77 1013.3
20260504040551 43 150 0.0 0.0 0.00 0.00 0.00 76 1013.1
20260504040047 43 150 0.0 0.0 0.00 0.00 0.00 77 1013.1
20260504035544 43 150 0.0 0.0 0.00 0.00 0.00 76 1013.0
20260504035040 44 150 0.0 0.0 0.00 0.00 0.00 76 1013.1
20260504034539 44 150 0.0 0.0 0.00 0.00 0.00 74 1013.1
20260504034035 44 150 0.0 0.0 0.00 0.00 0.00 74 1013.1
20260504033533 44 150 0.0 0.0 0.00 0.00 0.00 74 1012.9
20260504033030 44 150 0.0 0.0 0.00 0.00 0.00 73 1013.2
20260504032527 44 150 0.0 0.0 0.00 0.00 0.00 72 1013.0
20260504032024 45 150 0.0 0.0 0.00 0.00 0.00 73 1012.8
20260504031521 45 150 0.0 0.0 0.00 0.00 0.00 72 1013.1
20260504031017 45 150 0.0 0.0 0.00 0.00 0.00 71 1013.1
20260504030515 45 150 0.0 0.0 0.00 0.00 0.00 70 1013.0
20260504030010 46 150 0.0 0.0 0.00 0.00 0.00 68 1012.9
20260504025508 46 150 0.0 0.0 0.00 0.00 0.00 67 1013.0
20260504025004 46 150 0.0 0.0 0.00 0.00 0.00 68 1013.0
20260504024502 47 150 0.0 0.0 0.00 0.00 0.00 68 1013.0
20260504023959 48 152 0.0 0.0 0.00 0.00 0.00 65 1012.9
20260504023455 48 151 0.0 0.0 0.00 0.00 0.00 63 1013.1
20260504022950 49 152 0.0 0.0 0.00 0.00 0.00 60 1013.0
20260504022447 49 153 0.0 0.0 0.00 0.00 0.00 61 1013.0
20260504021944 49 152 0.0 0.0 0.00 0.00 0.00 60 1012.6
20260504021441 49 158 0.0 0.0 0.00 0.00 0.00 59 1013.2
20260504020938 49 158 0.0 0.0 0.00 0.00 0.00 62 1013.0
20260504020434 50 158 0.0 0.0 0.00 0.00 0.00 59 1012.8
20260504015931 50 156 0.0 0.0 0.00 0.00 0.00 54 1012.6
20260504015427 50 155 0.0 0.0 0.00 0.00 0.00 56 1012.9
20260504014923 50 159 0.0 0.0 0.00 0.00 0.00 54 1012.5
20260504014420 50 160 0.0 0.0 0.00 0.00 0.00 55 1012.8
20260504013916 51 159 0.0 0.0 0.00 0.00 0.00 53 1012.9
20260504013415 51 168 0.0 0.0 0.00 0.00 0.00 53 1012.5
20260504012911 51 170 0.0 0.0 0.00 0.00 0.00 52 1012.3
20260504012409 52 163 0.0 0.0 0.00 0.00 0.00 52 1012.5
20260504011906 52 161 0.0 0.0 0.00 0.00 0.00 52 1012.4
20260504011403 52 161 0.0 0.0 0.00 0.00 0.00 51 1012.2
20260504010859 53 166 0.0 0.0 0.00 0.00 0.00 49 1012.8
20260504010354 53 166 0.0 0.0 0.00 0.00 0.00 47 1012.4
20260504005845 54 160 0.0 0.0 0.00 0.00 0.00 46 1012.4
20260504005342 55 169 0.0 0.0 0.00 0.00 0.00 44 1012.3
20260504004839 55 170 0.0 0.0 0.00 0.00 0.00 43 1012.2
20260504004337 56 168 0.0 0.0 0.00 0.00 0.00 42 1012.0
20260504003833 56 164 0.0 0.0 0.00 0.00 0.00 41 1012.2
20260504003330 56 165 0.0 0.0 0.00 0.00 0.00 42 1012.1
20260504002827 55 166 0.0 0.0 0.00 0.00 0.00 41 1012.0
20260504002324 56 183 0.0 0.0 0.00 0.00 0.00 41 1011.7
20260504001822 56 170 0.0 0.0 0.00 0.00 0.00 40 1011.9
20260504001319 56 170 0.0 0.0 0.00 0.00 0.00 41 1011.9
20260504000815 56 167 0.0 0.0 0.00 0.00 0.00 39 1011.9
20260504000312 57 167 0.0 0.0 0.00 0.00 0.00 41 1011.9
20260503235810 57 167 0.0 0.0 0.00 0.00 0.00 40 1011.9
20260503235308 57 177 0.0 0.0 0.00 0.00 0.00 40 1012.0
20260503234805 58 171 0.0 0.0 0.00 0.00 0.00 40 1011.7
20260503234303 58 186 0.0 0.0 0.00 0.00 0.00 40 1011.7
20260503233800 59 169 0.9 0.9 0.00 0.00 0.00 39 1011.8
20260503233255 59 236 0.0 0.9 0.00 0.00 0.00 39 1011.8
20260503232753 59 182 0.9 0.9 0.00 0.00 0.00 39 1011.6
20260503232250 59 193 0.0 0.0 0.00 0.00 0.00 40 1011.9
20260503231748 59 176 0.0 0.0 0.00 0.00 0.00 39 1011.8
20260503231245 59 179 0.0 0.0 0.00 0.00 0.00 38 1011.8
20260503230740 59 174 0.9 1.7 0.00 0.00 0.00 37 1011.6
20260503230238 59 224 3.5 3.5 0.00 0.00 0.00 36 1011.8
20260503225736 59 221 2.6 3.5 0.00 0.00 0.00 37 1011.6
20260503225235 59 183 0.9 1.7 0.00 0.00 0.00 38 1011.6
20260503224732 60 262 1.7 5.2 0.00 0.00 0.00 36 1011.4
20260503224230 60 217 1.7 2.6 0.00 0.00 0.00 38 1011.8
20260503223728 60 238 3.5 3.5 0.00 0.00 0.00 36 1011.8
20260503223225 59 275 1.7 1.7 0.00 0.00 0.00 37 1011.5
20260503222721 59 305 0.0 1.7 0.00 0.00 0.00 38 1011.8
20260503222219 59 284 0.9 3.5 0.00 0.00 0.00 38 1011.8
20260503221717 59 182 0.9 0.9 0.00 0.00 0.00 39 1011.7
20260503221215 60 279 1.7 1.7 0.00 0.00 0.00 36 1011.8
20260503220711 60 179 1.7 1.7 0.00 0.00 0.00 36 1011.8
20260503220208 59 176 0.0 0.0 0.00 0.00 0.00 38 1011.9
20260503215705 59 242 0.0 0.0 0.00 0.00 0.00 37 1011.7
20260503215202 59 237 0.0 0.0 0.00 0.00 0.00 37 1011.8
20260503214700 59 220 2.6 3.5 0.00 0.00 0.00 38 1011.8
20260503214155 59 233 0.0 0.0 0.00 0.00 0.00 36 1011.8
20260503213649 60 256 3.5 6.1 0.00 0.00 0.00 34 1011.6
20260503213146 59 205 0.0 0.0 0.00 0.00 0.00 37 1011.5
20260503212643 59 244 0.0 0.0 0.00 0.00 0.00 36 1011.6
20260503212140 59 257 2.6 2.6 0.00 0.00 0.00 36 1011.8
20260503211638 60 263 1.7 3.5 0.00 0.00 0.00 36 1011.6
20260503211133 60 263 0.0 0.9 0.00 0.00 0.00 37 1011.6
20260503210630 60 276 3.5 6.1 0.00 0.00 0.00 37 1011.6
20260503210127 59 293 4.3 7.0 0.00 0.00 0.00 36 1011.9
20260503205622 59 233 1.7 1.7 0.00 0.00 0.00 35 1011.4
20260503205119 58 222 3.5 5.2 0.00 0.00 0.00 36 1011.6
20260503204615 59 175 4.3 7.0 0.00 0.00 0.00 36 1011.7
20260503204113 59 214 3.5 6.1 0.00 0.00 0.00 34 1011.7
20260503203610 59 86 0.0 0.9 0.00 0.00 0.00 38 1011.5
20260503203108 60 178 1.7 1.7 0.00 0.00 0.00 36 1011.6
20260503202605 59 231 2.6 3.5 0.00 0.00 0.00 36 1011.9
20260503202103 58 209 0.9 1.7 0.00 0.00 0.00 37 1011.7
20260503201600 59 244 2.6 2.6 0.00 0.00 0.00 37 1011.7
20260503201057 60 245 0.0 0.9 0.00 0.00 0.00 36 1011.8
20260503200548 59 168 0.9 1.7 0.00 0.00 0.00 38 1011.9
20260503200044 59 264 0.0 0.9 0.00 0.00 0.00 37 1011.8
20260503195542 59 249 4.3 7.0 0.00 0.00 0.00 36 1012.1
20260503195038 59 216 0.9 1.7 0.00 0.00 0.00 36 1012.0
20260503194536 59 257 4.3 5.2 0.00 0.00 0.00 36 1012.0
20260503194035 58 172 0.0 0.0 0.00 0.00 0.00 38 1012.2
20260503193533 59 275 1.7 3.5 0.00 0.00 0.00 36 1012.2
20260503193028 59 173 1.7 3.5 0.00 0.00 0.00 36 1012.2
20260503192524 59 197 0.0 0.0 0.00 0.00 0.00 36 1012.2
20260503192020 58 104 1.7 2.6 0.00 0.00 0.00 36 1012.3
20260503191517 59 308 5.2 6.1 0.00 0.00 0.00 36 1012.3
20260503191014 60 180 2.6 3.5 0.00 0.00 0.00 36 1012.4
20260503190510 58 272 2.6 2.6 0.00 0.00 0.00 37 1012.5
20260503190008 59 272 0.0 0.0 0.00 0.00 0.00 37 1012.6
20260503185503 57 85 0.9 1.7 0.00 0.00 0.00 36 1012.6
20260503184958 58 237 0.0 0.9 0.00 0.00 0.00 38 1012.6
20260503184455 58 235 2.6 2.6 0.00 0.00 0.00 37 1012.9
20260503183951 58 319 0.0 0.9 0.00 0.00 0.00 38 1012.6
20260503183448 58 15 1.7 1.7 0.00 0.00 0.00 39 1012.6
20260503182944 59 235 3.5 3.5 0.00 0.00 0.00 35 1012.8
20260503182443 60 85 1.7 2.6 0.00 0.00 0.00 36 1012.9
20260503181941 58 244 0.0 0.0 0.00 0.00 0.00 41 1012.9
20260503181438 59 317 3.5 7.0 0.00 0.00 0.00 34 1013.0
20260503180933 58 255 2.6 6.1 0.00 0.00 0.00 37 1013.0
20260503180432 58 255 3.5 5.2 0.00 0.00 0.00 35 1012.8
20260503175928 56 235 0.0 0.9 0.00 0.00 0.00 39 1013.0
20260503175427 57 170 0.0 0.0 0.00 0.00 0.00 36 1013.0
20260503174922 57 111 1.7 1.7 0.00 0.00 0.00 35 1013.2
20260503174420 57 314 0.0 0.0 0.00 0.00 0.00 37 1013.2
20260503173915 56 102 1.7 2.6 0.00 0.00 0.00 35 1013.2
20260503173411 55 300 3.5 5.2 0.00 0.00 0.00 38 1013.3
20260503172908 57 318 4.3 7.8 0.00 0.00 0.00 37 1013.4
20260503172405 57 264 2.6 2.6 0.00 0.00 0.00 35 1013.4
20260503171901 56 241 3.5 3.5 0.00 0.00 0.00 39 1013.5
20260503171358 55 218 2.6 3.5 0.00 0.00 0.00 40 1013.6
20260503170856 55 257 3.5 5.2 0.00 0.00 0.00 40 1013.8
20260503170352 56 240 2.6 2.6 0.00 0.00 0.00 37 1013.9
20260503150744 51 293 0.0 0.0 0.00 0.00 0.00 43 1015.2
20260503150240 50 167 0.0 0.9 0.00 0.00 0.00 44 1014.8
20260503140204 49 192 0.0 0.9 0.00 0.00 0.00 52 1015.7
20260503131134 46 170 0.0 0.0 0.00 0.00 0.00 53 1015.7
20260503130632 46 179 0.9 1.7 0.00 0.00 0.00 53 1015.7
20260503130129 46 261 0.0 0.9 0.00 0.00 0.00 50 1015.7
20260503110522 39 169 0.0 0.0 0.00 0.00 0.00 75 1015.5
20260503090409 40 164 0.0 0.0 0.00 0.00 0.00 70 1014.5
20260503081335 41 177 0.0 0.0 0.00 0.00 0.00 69 1014.5
20260503080832 41 179 0.0 0.0 0.00 0.00 0.00 67 1014.2
20260503080329 41 180 0.0 0.0 0.00 0.00 0.00 67 1014.3
20260503072805 41 188 0.0 0.0 0.00 0.00 0.00 68 1014.0
20260503072305 41 179 0.0 0.0 0.00 0.00 0.00 70 1014.0
20260503071758 41 167 0.0 0.0 0.00 0.00 0.00 72 1014.0
20260503071256 42 173 0.0 0.0 0.00 0.00 0.00 71 1013.8
20260503070752 42 188 0.0 0.0 0.00 0.00 0.00 69 1014.2
20260503070250 42 203 0.0 0.0 0.00 0.00 0.00 70 1013.7
20260503060209 43 232 0.0 0.0 0.00 0.00 0.00 65 1014.1
20260503054656 44 183 0.0 0.0 0.00 0.00 0.00 65 1014.3
20260503054153 43 188 0.0 0.0 0.00 0.00 0.00 64 1014.4
20260503053651 44 224 0.0 0.0 0.00 0.00 0.00 66 1014.2
20260503053149 44 174 0.0 0.0 0.00 0.00 0.00 63 1014.2